World > North America > United States > Michigan > Gibraltar   City of Gibraltar, Michigan

Gibraltar, MI Hourly Weather Updates

Feedback E-mail the Weather

Quick Clicks

Gibraltar, MI Weather Maps

°F °C°F °C
Gibraltar Weather Map
UTC Time: 4/24/2024, 00:03
Your Time:

Gibraltar, MI Regional Weather

Expires:202404240100;;264021
ASUS43 KDTX 240001
RWRMI 
MICHIGAN HOURLY REGIONAL WEATHER ROUNDUP
NATIONAL WEATHER SERVICE DETROIT/PONTIAC MI
800 PM EDT TUE APR 23 2024

NOTE: "FAIR" INDICATES FEW OR NO CLOUDS BELOW 12,000 FEET WITH NO
SIGNIFICANT WEATHER AND/OR OBSTRUCTION TO VISIBILITY.


MIZ047>049-052>055-059>063-066>070-074>076-081>083-240100-
SOUTHEAST LOWER MICHIGAN
  
CITY           SKY/WX    TMP DP  RH WIND       PRES   REMARKS
ADRIAN         MOCLDY    51  47  86 SW14      29.83F TC  11           
6HR MIN TEMP:  50; 6HR MAX TEMP:  52; 6HR PCP:  0.11;                

ALMA           MOCLDY    55  36  49 SW8G18    29.74R TC  13           
6HR MIN TEMP:  55; 6HR MAX TEMP:  66;                                

ANN ARBOR      MOCLDY    51  46  83 SW12G22   29.79F TC  11           
BAD AXE        PTCLDY    58  40  52 SW12G22   29.69R TC  14           
6HR MIN TEMP:  58; 6HR MAX TEMP:  64;                                

CARO           CLEAR     57  44  61 SW13G23   29.71R TC  14           
DETROIT CITY   CLOUDY    54  46  74 SW16G26   29.79F TC  12           
6HR MIN TEMP:  53; 6HR MAX TEMP:  58; 6HR PCP: TRACE;                

DETROIT        CLOUDY    51  48  89 SW20G28   29.81F TC  11           
6HR MIN TEMP:  51; 6HR MAX TEMP:  54; 6HR PCP: TRACE;                

FLINT          PTCLDY    55  45  68 SW12G26   29.75R TC  13           
6HR MIN TEMP:  55; 6HR MAX TEMP:  59;                                

GROSSE ILE     CLOUDY    51  46  80 SW12      29.81F TC  11           
6HR MIN TEMP:  50; 6HR MAX TEMP:  54; 6HR PCP:  0.11;                

HILLSDALE      PTCLDY    49  43  79 S10G20    29.81F TC  10           
6HR MIN TEMP:  49; 6HR MAX TEMP:  51; 6HR PCP:  0.03;                

HOWELL         PTCLDY    54  45  70 S14G20    29.76F TC  12           
6HR MIN TEMP:  54; 6HR MAX TEMP:  57;                                


CITY           SKY/WX    TMP DP  RH WIND       PRES   REMARKS
JACKSON        PTCLDY    51  46  83 S10G22    29.79F TC  11           
6HR MIN TEMP:  51; 6HR MAX TEMP:  55;                                

LAMBERTVILLE   CLOUDY    51  48  89 S8        29.84F TC  11           
6HR MIN TEMP:  50; 6HR MAX TEMP:  51;                                

LANSING        CLEAR     54  45  71 SW17G25   29.77R TC  12           
6HR MIN TEMP:  54; 6HR MAX TEMP:  60;                                

LAPEER         PTCLDY    55  43  64 SW12G23   29.75R TC  13           
6HR MIN TEMP:  55; 6HR MAX TEMP:  60;                                

MASON          CLEAR     54  43  67 S6        29.76S TC  12           
6HR MIN TEMP:  54; 6HR MAX TEMP:  58;                                

MONROE         CLOUDY    51  48  90 SW13G25   29.81F TC  11           
6HR MIN TEMP:  50; 6HR MAX TEMP:  52; 6HR PCP:  0.15;                

PONTIAC        MOCLDY    53  44  71 SW13G25   29.76F TC  12           
6HR MIN TEMP:  53; 6HR MAX TEMP:  56;                                

PORT HOPE        N/A     48  43  82 N18       29.72R TC   9           
6HR MIN TEMP:  48; 6HR MAX TEMP:  66; 6HR PCP:  0.27;                

PORT HURON     CLOUDY    54  45  71 SW8G16    29.77S TC  12           
TRI CITIES     LGT RAIN  59  43  55 W10G31    29.72R TC  15           
6HR MIN TEMP:  59; 6HR MAX TEMP:  67; 6HR PCP: TRACE;                

MIDLAND        MOCLDY    61  38  43 W10G29    29.71R TC  16           
6HR MIN TEMP:  61; 6HR MAX TEMP:  69;                                

SAGINAW HB     PTCLDY    59  45  58 SW17G23   29.70R TC  15           
6HR MIN TEMP:  60; 6HR MAX TEMP:  66;                                

$$

SKY/WX - Weather  TMP - Temperature  DP - Dew Point  RH - Humidity
WIND - Wind Direction/Speed PRES - Barometric Pressure VSB - Visibility
WCI - Wind Chill Index E13G22 Wind - East Wind 13 mph/Gusts of 22 mph

Trending Headlines

Trending Entertainment Headlines

Gibraltar Radar Loop

Use the map search tool if you want to place a location marker on the radar map...

Gibraltar Quick Facts

National Two Day Weather Forecast


E-mail the Gibraltar Weather Forecast

Voice your opinion or tell us about page issues...